Regional Weather Roundup
Issued by NWS Green Bay, WI

Home | Current Version | Previous Version | Text Only | Print | Product List | Glossary On
Versions: 1 2 3 4 5 6 7 8 9 10 11 12 13 14 15 16 17 18 19 20 21 22 23 24 25 26 27 28 29 30 31 32 33 34 35 36 37 38 39 40 41 42 43 44 45 46 47 48 49 50
000
ASUS43 KGRB 262359
RWRGRB

NORTH-CENTRAL AND NORTHEAST WISCONSIN REGIONAL WEATHER ROUNDUP
NATIONAL WEATHER SERVICE GREEN BAY WI
700 PM CDT SUN APR 26 2015

WIZ005-009-010>012-018-019-270100-
NORTH CENTRAL WISCONSIN

CITY           SKY/WX    TMP DP  RH WIND       PRES   REMARKS
IRONWOOD       CLEAR     48  27  43 N5        30.12S
MANITOWISH WTR NOT AVBL
ARBOR VITAE    NOT AVBL
EAGLE RIVER    NOT AVBL
LAND O LAKES   NOT AVBL
RHINELANDER    CLEAR     52  26  36 VRB7      30.08R
PHILLIPS       CLEAR     50  27  40 N14G21    30.09S
ANTIGO         NOT AVBL
TOMAHAWK       NOT AVBL
MERRILL        NOT AVBL
$$

WIZ013-073-270100-
NORTHEAST WISCONSIN

CITY           SKY/WX    TMP DP  RH WIND       PRES   REMARKS
IRON MOUNTAIN  CLEAR     52  27  38 NE14G21   30.06R
MARINETTE      CLEAR     46  34  61 E13       30.04S
$$

WIZ017-030-035>037-045-270100-
CENTRAL WISCONSIN

CITY           SKY/WX    TMP DP  RH WIND       PRES   REMARKS
MEDFORD        NOT AVBL
WAUSAU         CLEAR     58  22  24 NE9G20    30.02R
MOSINEE        CLEAR     57  21  24 N13       30.03S
MARSHFIELD     CLEAR     60  21  22 N13G22    30.03R
WISC RAPIDS    CLEAR     61  16  17 N12       30.02S
STEVENS POINT  NOT AVBL
WAUPACA        NOT AVBL
SHAWANO        NOT AVBL
CLINTONVILLE   CLEAR     55  27  33 E12       30.02R
$$

WIZ038-039-048-051-270100-
FOX VALLEY

CITY           SKY/WX    TMP DP  RH WIND       PRES   REMARKS
NWS GREEN BAY  CLEAR     53  32  44 NE14      30.03S
APPLETON       CLEAR     57  21  24 NE12      30.02R
OSHKOSH        CLEAR     57  26  30 E10       30.01R
FOND DU LAC    CLEAR     55  28  35 E12       30.00S
$$

WIZ022-050-052-270100-
EAST CENTRAL WISCONSIN

CITY           SKY/WX    TMP DP  RH WIND       PRES   REMARKS
STURGEON BAY   CLEAR     50  28  43 NE14      30.06S
MANITOWOC      NOT AVBL
SHEBOYGAN      PTCLDY    46  28  49 NE14      30.04R
$$

LMZ563-521-522-541>543-270100-
LAKESHORE

STATION/POSITION TIME  TEMP    WIND        PRES    VSBY  WAVE
                       AIR SEA DIR/SP/G                  HT/PER
                 (UTC) (F)     (DEG/KT/KT) (MB)    (MI)  (FT/S)
SHEBOYGAN LKSHOR 2300   42      30/ 10/ 11 1017.8R
KEWAUNEE LKSHORE 2300   45      50/  6/  9 1016.5S
NORTHPORT PIER   2300   43     360/ 13/ 15 1017.6R
CHAMBERS ISLAND  2300   43      20/ 15/ 17 1017.9R
MENOMINEE LKSHOR 2300   43      40/ 17/ 20 1017.8R
$$



USA.gov is the U.S. government's official web portal to all federal, state and local government web resources and services.